Voltar ao catálogo

STARLINK-30830

AtivoComunicaçõesVLEO
NORAD 58194·PAYLOAD·🇺🇸 United States

Lançado Oct 30, 2023 de Cape Canaveral Space Force Station

Loading…

Próximas Passagens (próximas 24 horas)

TLE

AtualizadoSource: CelesTrak SupGP

Época: Sep 15, 2026, 01:43 UTC

1 58194C 23167V   26258.07201389  .00009191  00000+0  33291-3 0  2587
2 58194  43.0004 153.5173 0001242 275.2005  46.4611 15.27571752    10

Acompanhe STARLINK-30830 em tempo real com AllMySat

Download on the App Store